TimeCST,TemperatureF,Dew PointF,Humidity,Sea Level PressureIn,VisibilityMPH,Wind Direction,Wind SpeedMPH,Gust SpeedMPH,PrecipitationIn,Events,Conditions,WindDirDegrees,DateUTC
12:10 AM,30.2,23.0,75,30.25,10.0,Calm,Calm,-,N/A,,Overcast,0,2012-11-05 06:10:00
12:29 AM,30.2,23.0,75,30.25,10.0,Calm,Calm,-,N/A,,Overcast,0,2012-11-05 06:29:00
12:50 AM,30.2,23.0,75,30.25,10.0,Calm,Calm,-,N/A,,Overcast,0,2012-11-05 06:50:00
1:10 AM,30.2,23.0,75,30.25,10.0,Calm,Calm,-,N/A,,Overcast,0,2012-11-05 07:10:00
1:29 AM,30.2,23.0,75,30.25,10.0,Calm,Calm,-,N/A,,Overcast,0,2012-11-05 07:29:00
1:50 AM,30.2,23.0,75,30.25,10.0,Calm,Calm,-,N/A,,Overcast,0,2012-11-05 07:50:00
2:10 AM,30.2,23.0,75,30.25,10.0,Calm,Calm,-,N/A,,Overcast,0,2012-11-05 08:10:00
2:29 AM,28.4,23.0,80,30.25,10.0,Calm,Calm,-,N/A,,Overcast,0,2012-11-05 08:29:00
2:50 AM,28.4,23.0,80,30.24,10.0,Calm,Calm,-,N/A,,Overcast,0,2012-11-05 08:50:00
3:10 AM,26.6,23.0,86,30.25,10.0,Calm,Calm,-,N/A,,Overcast,0,2012-11-05 09:10:00
3:29 AM,26.6,21.2,80,30.25,10.0,Calm,Calm,-,N/A,,Overcast,0,2012-11-05 09:29:00
3:50 AM,26.6,21.2,80,30.25,10.0,Calm,Calm,-,N/A,,Overcast,0,2012-11-05 09:50:00
4:10 AM,24.8,21.2,86,30.24,10.0,ENE,3.5,-,N/A,,Scattered Clouds,60,2012-11-05 10:10:00
4:29 AM,23.0,21.2,93,30.25,10.0,Calm,Calm,-,N/A,,Clear,0,2012-11-05 10:29:00
4:50 AM,23.0,21.2,93,30.24,10.0,Calm,Calm,-,N/A,,Clear,0,2012-11-05 10:50:00
5:09 AM,21.2,19.4,93,30.24,10.0,NE,3.5,-,N/A,,Clear,40,2012-11-05 11:09:00
5:30 AM,19.4,17.6,93,30.23,10.0,Calm,Calm,-,N/A,,Clear,0,2012-11-05 11:30:00
5:49 AM,19.4,17.6,93,30.22,10.0,ENE,3.5,-,N/A,,Clear,70,2012-11-05 11:49:00
6:09 AM,19.4,17.6,93,30.23,10.0,Calm,Calm,-,N/A,,Clear,0,2012-11-05 12:09:00
6:30 AM,17.6,15.8,93,30.22,10.0,Calm,Calm,-,N/A,,Clear,0,2012-11-05 12:30:00
6:49 AM,17.6,15.8,93,30.23,10.0,Calm,Calm,-,N/A,,Clear,0,2012-11-05 12:49:00
7:09 AM,17.6,15.8,93,30.22,10.0,ENE,3.5,-,N/A,,Clear,60,2012-11-05 13:09:00
7:30 AM,19.4,17.6,93,30.23,10.0,Calm,Calm,-,N/A,,Scattered Clouds,0,2012-11-05 13:30:00
7:49 AM,19.4,17.6,93,30.22,10.0,Calm,Calm,-,N/A,,Mostly Cloudy,0,2012-11-05 13:49:00
8:09 AM,23.0,21.2,93,30.23,10.0,Calm,Calm,-,N/A,,Overcast,0,2012-11-05 14:09:00
8:30 AM,26.6,23.0,86,30.23,10.0,Calm,Calm,-,N/A,,Overcast,0,2012-11-05 14:30:00
8:49 AM,26.6,23.0,86,30.23,10.0,Calm,Calm,-,N/A,,Overcast,0,2012-11-05 14:49:00
9:09 AM,30.2,26.6,86,30.23,10.0,Calm,Calm,-,N/A,,Overcast,0,2012-11-05 15:09:00
9:30 AM,30.2,26.6,86,30.23,10.0,Calm,Calm,-,N/A,,Overcast,0,2012-11-05 15:30:00
9:49 AM,32.0,26.6,80,30.22,10.0,SE,5.8,-,N/A,,Mostly Cloudy,140,2012-11-05 15:49:00
10:10 AM,32.0,26.6,80,30.21,10.0,SSE,9.2,-,N/A,,Mostly Cloudy,150,2012-11-05 16:10:00
10:29 AM,33.8,26.6,75,30.21,10.0,SSE,9.2,-,N/A,,Mostly Cloudy,160,2012-11-05 16:29:00
10:49 AM,32.0,26.6,80,30.21,10.0,ESE,6.9,-,N/A,,Mostly Cloudy,120,2012-11-05 16:49:00
11:10 AM,33.8,26.6,75,30.20,10.0,SSE,8.1,-,N/A,,Overcast,160,2012-11-05 17:10:00
11:29 AM,35.6,28.4,75,30.18,10.0,SSE,9.2,-,N/A,,Overcast,160,2012-11-05 17:29:00
11:50 AM,33.8,26.6,75,30.17,10.0,SE,8.1,-,N/A,,Overcast,140,2012-11-05 17:50:00
12:09 PM,35.6,28.4,75,30.17,10.0,South,5.8,-,N/A,,Overcast,170,2012-11-05 18:09:00
12:29 PM,35.6,28.4,75,30.15,10.0,SSE,9.2,-,N/A,,Overcast,150,2012-11-05 18:29:00
12:50 PM,35.6,28.4,75,30.15,10.0,Calm,Calm,-,N/A,,Overcast,0,2012-11-05 18:50:00
1:09 PM,35.6,28.4,75,30.14,10.0,SSE,5.8,-,N/A,,Overcast,160,2012-11-05 19:09:00
1:29 PM,35.6,26.6,70,30.13,10.0,SSE,5.8,-,N/A,,Overcast,150,2012-11-05 19:29:00
1:49 PM,35.6,26.6,70,30.11,10.0,SE,4.6,-,N/A,,Overcast,130,2012-11-05 19:49:00
2:09 PM,37.4,26.6,65,30.10,10.0,SE,5.8,-,N/A,,Overcast,140,2012-11-05 20:09:00
2:29 PM,35.6,26.6,70,30.08,10.0,SSE,6.9,-,N/A,,Overcast,150,2012-11-05 20:29:00
2:49 PM,35.6,26.6,70,30.08,10.0,SSE,6.9,-,N/A,,Overcast,160,2012-11-05 20:49:00
3:10 PM,35.6,26.6,70,30.07,10.0,SE,4.6,-,N/A,,Overcast,140,2012-11-05 21:10:00
3:49 PM,35.6,26.6,70,30.07,10.0,SE,5.8,-,N/A,,Overcast,140,2012-11-05 21:49:00
4:10 PM,35.6,26.6,70,30.05,10.0,SE,5.8,-,N/A,,Overcast,130,2012-11-05 22:10:00
4:30 PM,35.6,26.6,70,30.05,10.0,SE,6.9,-,N/A,,Overcast,140,2012-11-05 22:30:00
4:49 PM,35.6,26.6,70,30.05,10.0,SE,5.8,-,N/A,,Overcast,140,2012-11-05 22:49:00
5:10 PM,35.6,26.6,70,30.04,10.0,SE,6.9,-,N/A,,Overcast,140,2012-11-05 23:10:00
5:29 PM,35.6,26.6,70,30.03,10.0,SE,6.9,-,N/A,,Overcast,140,2012-11-05 23:29:00
5:49 PM,35.6,28.4,75,30.03,10.0,SE,4.6,-,N/A,,Overcast,140,2012-11-05 23:49:00
6:10 PM,33.8,26.6,75,30.03,10.0,SSE,4.6,-,N/A,,Overcast,150,2012-11-06 00:10:00
6:29 PM,33.8,24.8,70,30.01,10.0,SE,5.8,-,N/A,,Overcast,140,2012-11-06 00:29:00
6:49 PM,33.8,26.6,75,30.00,10.0,SSE,4.6,-,N/A,,Overcast,150,2012-11-06 00:49:00
7:10 PM,33.8,26.6,75,30.00,10.0,SSE,5.8,-,N/A,,Overcast,160,2012-11-06 01:10:00
7:29 PM,33.8,26.6,75,29.99,10.0,SSE,4.6,-,N/A,,Overcast,160,2012-11-06 01:29:00
7:49 PM,33.8,26.6,75,29.98,10.0,SSE,8.1,-,N/A,,Overcast,150,2012-11-06 01:49:00
8:10 PM,33.8,28.4,81,29.97,10.0,SSE,10.4,-,N/A,,Overcast,160,2012-11-06 02:10:00
8:29 PM,32.0,28.4,87,29.96,10.0,SSE,5.8,-,N/A,,Overcast,160,2012-11-06 02:29:00
8:49 PM,32.0,28.4,87,29.95,7.0,SSE,5.8,-,N/A,,Overcast,150,2012-11-06 02:49:00
9:10 PM,32.0,30.2,93,29.95,5.0,SSE,6.9,-,N/A,,Overcast,160,2012-11-06 03:10:00
9:29 PM,32.0,30.2,93,29.93,7.0,SSE,4.6,-,N/A,,Overcast,150,2012-11-06 03:29:00
9:49 PM,32.0,30.2,93,29.92,10.0,SE,4.6,-,N/A,,Overcast,140,2012-11-06 03:49:00
10:10 PM,32.0,30.2,93,29.91,10.0,SSE,6.9,-,N/A,,Overcast,150,2012-11-06 04:10:00
10:29 PM,32.0,30.2,93,29.90,5.0,SSE,5.8,-,N/A,,Overcast,150,2012-11-06 04:29:00
10:49 PM,32.0,32.0,100,29.88,4.0,SSE,5.8,-,N/A,,Overcast,150,2012-11-06 04:49:00
11:10 PM,33.8,32.0,93,29.87,4.0,SSE,5.8,-,N/A,,Overcast,160,2012-11-06 05:10:00
11:29 PM,33.8,32.0,93,29.86,5.0,SSE,6.9,-,N/A,,Overcast,160,2012-11-06 05:29:00
11:49 PM,33.8,32.0,93,29.85,5.0,SSE,10.4,-,N/A,,Overcast,160,2012-11-06 05:49:00